This demonstration page uses our WeatherBlox Daily Observations layout. Learn more.

Left ArrowRight Arrow

Hourly Observations for November 14, 2022

Temp ( °F °C ) Dew Point ( °F °C ) Humidity (%) Winds ( mph kmh ) Pressure ( in mb ) Visibility ( mi km ) Precip ( " mm )
12:15 am 00:15 Cloudy 41 5 28 -2 60 60 NNW 9 15 30.27 1025 10 16 0.00 0.00
12:35 am 00:35 Cloudy 41 5 30 -1 65 65 NNW 10 17 30.28 1025 10 16 0.00 0.00
12:55 am 00:55 Cloudy 41 5 28 -2 60 60 N 9 15 30.29 1026 10 16 0.00 0.00
1:15 am 01:15 Mostly Cloudy 41 5 27 -3 56 56 N 7 11 30.29 1026 10 16 0.00 0.00
1:35 am 01:35 Mostly Cloudy 39 4 27 -3 60 60 NNW 7 11 30.30 1026 10 16 0.00 0.00
1:55 am 01:55 Cloudy 37 3 27 -3 65 65 NNW 7 11 30.30 1026 10 16 0.00 0.00
2:15 am 02:15 Partly Cloudy 37 3 27 -3 65 65 N 5 7 30.30 1026 10 16 0.00 0.00
2:35 am 02:35 Clear 37 3 27 -3 65 65 NNW 5 7 30.30 1026 10 16 0.00 0.00
2:55 am 02:55 Clear 36 2 27 -3 69 69 NNW 5 7 30.31 1026 10 16 0.00 0.00
3:15 am 03:15 Clear 37 3 27 -3 65 65 NNW 7 11 30.32 1027 10 16 0.00 0.00
3:35 am 03:35 Clear 36 2 28 -2 75 75 Calm 30.32 1027 10 16 0.00 0.00
3:55 am 03:55 Partly Cloudy 34 1 28 -2 80 80 Calm 30.33 1027 10 16 0.00 0.00
4:15 am 04:15 Partly Cloudy 34 1 28 -2 80 80 NNW 5 7 30.33 1027 10 16 0.00 0.00
4:35 am 04:35 Clear 34 1 28 -2 80 80 NW 3 6 30.33 1027 10 16 0.00 0.00
4:55 am 04:55 Clear 32 0 28 -2 86 86 WNW 3 6 30.34 1027 10 16 0.00 0.00
5:15 am 05:15 Clear 34 1 28 -2 80 80 Calm 30.35 1028 10 16 0.00 0.00
5:35 am 05:35 Partly Cloudy 32 0 28 -2 86 86 SSW 6 9 30.37 1029 10 16 0.00 0.00
5:55 am 05:55 Mostly Cloudy 32 0 28 -2 86 86 Calm 30.37 1029 10 16 0.00 0.00
6:15 am 06:15 Mostly Cloudy 32 0 30 -1 93 93 W 3 6 30.37 1029 10 16 0.00 0.00
6:35 am 06:35 Mostly Cloudy 34 1 28 -2 80 80 NNW 3 6 30.38 1029 10 16 0.00 0.00
6:55 am 06:55 Partly Cloudy 32 0 28 -2 86 86 Calm 30.39 1029 10 16 0.00 0.00
7:15 am 07:15 Sunny 32 0 28 -2 86 86 Calm 30.40 1030 10 16 0.00 0.00
7:35 am 07:35 Sunny 32 0 30 -1 93 93 Calm 30.41 1030 10 16 0.00 0.00
7:55 am 07:55 Sunny 34 1 30 -1 86 86 WNW 3 6 30.41 1030 10 16 0.00 0.00
8:15 am 08:15 Partly Cloudy 36 2 30 -1 80 80 WNW 3 6 30.43 1030 10 16 0.00 0.00
8:35 am 08:35 Mostly Cloudy 39 4 30 -1 70 70 NW 3 6 30.43 1030 10 16 0.00 0.00
8:55 am 08:55 Mostly Cloudy 41 5 30 -1 65 65 NW 7 11 30.43 1031 10 16 0.00 0.00
9:15 am 09:15 Cloudy 43 6 30 -1 61 61 N 6 9 30.43 1031 10 16 0.00 0.00
9:35 am 09:35 Mostly Cloudy 41 5 30 -1 65 65 N 12 19 30.43 1031 10 16 0.00 0.00
9:55 am 09:55 Partly Cloudy 43 6 28 -2 56 56 NNW 13 20 30.43 1031 10 16 0.00 0.00
10:15 am 10:15 Partly Cloudy 43 6 28 -2 56 56 N 7 11 30.43 1031 10 16 0.00 0.00
10:35 am 10:35 Mostly Cloudy 43 6 28 -2 56 56 N 5 7 30.42 1030 10 16 0.00 0.00
10:55 am 10:55 Partly Cloudy 45 7 28 -2 53 53 NNE 6 9 30.42 1030 10 16 0.00 0.00
11:15 am 11:15 Partly Cloudy 45 7 28 -2 53 53 Calm 30.42 1030 10 16 0.00 0.00
11:35 am 11:35 Partly Cloudy 45 7 28 -2 53 53 NE 7 11 30.41 1030 10 16 0.00 0.00
11:55 am 11:55 Sunny 45 7 28 -2 53 53 NNE 5 7 30.41 1030 10 16 0.00 0.00
12:15 pm 12:15 Partly Cloudy 45 7 30 -1 57 57 Calm 30.40 1029 10 16 0.00 0.00
12:35 pm 12:35 Partly Cloudy 46 8 30 -1 53 53 N 8 13 30.39 1029 10 16 0.00 0.00
12:55 pm 12:55 Partly Cloudy 46 8 30 -1 53 53 Calm 30.39 1029 10 16 0.00 0.00
1:15 pm 13:15 Partly Cloudy 46 8 28 -2 49 49 N 6 9 30.38 1029 10 16 0.00 0.00
1:35 pm 13:35 Partly Cloudy 46 8 30 -1 53 53 NNE 6 9 30.38 1029 10 16 0.00 0.00
1:55 pm 13:55 Sunny 46 8 30 -1 53 53 NW 6 9 30.37 1028 10 16 0.00 0.00
2:15 pm 14:15 Sunny 46 8 30 -1 53 53 N 3 6 30.37 1028 10 16 0.00 0.00
2:35 pm 14:35 Sunny 46 8 30 -1 53 53 WNW 3 6 30.37 1028 10 16 0.00 0.00
2:55 pm 14:55 Sunny 46 8 28 -2 49 49 Calm 30.37 1028 10 16 0.00 0.00
3:15 pm 15:15 Sunny 46 8 28 -2 49 49 NNW 3 6 30.37 1028 10 16 0.00 0.00
3:55 pm 15:55 Sunny 45 7 28 -2 53 53 N 5 7 30.37 1028 10 16 0.00 0.00
4:15 pm 16:15 Sunny 45 7 28 -2 53 53 Calm 30.37 1028 10 16 0.00 0.00
4:35 pm 16:35 Sunny 45 7 30 -1 57 57 Calm 30.38 1029 10 16 0.00 0.00
4:55 pm 16:55 Sunny 45 7 28 -2 53 53 NNW 3 6 30.38 1029 10 16 0.00 0.00
5:15 pm 17:15 Clear 45 7 28 -2 53 53 Calm 30.38 1029 10 16 0.00 0.00
5:35 pm 17:35 Clear 43 6 28 -2 56 56 NNE 3 6 30.38 1029 10 16 0.00 0.00
5:55 pm 17:55 Clear 43 6 28 -2 56 56 NNE 3 6 30.39 1029 10 16 0.00 0.00
6:15 pm 18:15 Clear 43 6 28 -2 56 56 Calm 30.39 1029 10 16 0.00 0.00
6:35 pm 18:35 Clear 43 6 30 -1 61 61 Calm 30.40 1030 10 16 0.00 0.00
6:55 pm 18:55 Clear 37 3 32 0 81 81 Calm 30.41 1030 10 16 0.00 0.00
7:15 pm 19:15 Clear 37 3 30 -1 75 75 Calm 30.41 1030 10 16 0.00 0.00
7:35 pm 19:35 Clear 36 2 32 0 87 87 Calm 30.41 1030 10 16 0.00 0.00
7:55 pm 19:55 Clear 37 3 30 -1 75 75 NNE 5 7 30.42 1030 10 16 0.00 0.00
8:15 pm 20:15 Clear 37 3 30 -1 75 75 NNE 6 9 30.42 1030 10 16 0.00 0.00
8:35 pm 20:35 Clear 37 3 30 -1 75 75 NE 6 9 30.43 1030 10 16 0.00 0.00
8:55 pm 20:55 Clear 37 3 30 -1 75 75 NNE 5 7 30.44 1031 10 16 0.00 0.00
9:15 pm 21:15 Clear 36 2 30 -1 80 80 NNE 3 6 30.45 1031 10 16 0.00 0.00
9:35 pm 21:35 Clear 36 2 30 -1 80 80 NE 5 7 30.45 1031 10 16 0.00 0.00
9:55 pm 21:55 Clear 36 2 30 -1 80 80 NE 3 6 30.45 1031 10 16 0.00 0.00
10:15 pm 22:15 Clear 36 2 30 -1 80 80 NE 5 7 30.43 1030 10 16 0.00 0.00
10:35 pm 22:35 Clear 36 2 30 -1 80 80 Calm 30.44 1031 10 16 0.00 0.00
10:55 pm 22:55 Clear 34 1 30 -1 86 86 Calm 30.44 1031 10 16 0.00 0.00
11:15 pm 23:15 Clear 34 1 30 -1 86 86 Calm 30.44 1031 10 16 0.00 0.00
11:35 pm 23:35 Clear 34 1 30 -1 86 86 Calm 30.43 1031 10 16 0.00 0.00
11:55 pm 23:55 Clear 34 1 30 -1 86 86 N 3 6 30.43 1031 10 16 0.00 0.00

Powered by AerisWeather